Logansport, IN

3:48 AM EDT on August 28, 2016 (GMT -0400)
Logansport Municipal

Weather History for KGGP - January, 2014

Change the Weather History Date:

Monday, January 6, 2014

  Actual Average Record
Temperature  
Mean Temperature -4 °F -  
Max Temperature 5 °F 38 °F 39 °F (2016)
Min Temperature -14 °F 25 °F -14 °F (2014)
Degree Days  
Heating Degree Days 70    
Moisture  
Dew Point -18 °F    
Average Humidity 71    
Maximum Humidity 78    
Minimum Humidity 64    
Precipitation  
Precipitation 0.00 in - - ()
Sea Level Pressure  
Sea Level Pressure 30.21 in    
Wind  
Wind Speed 16 mph (West)    
Max Wind Speed 26 mph    
Max Gust Speed 33 mph    
Visibility 4 miles    
Events      
Averages and records for this station are not official NWS values.
T = Trace of Precipitation, MM = Missing Value Source: NWS Daily Summary

Daily Weather History Graph

Daily Weather History Graph

Search for Another Location

Airport or City:

Trip Planner

Search our weather history database for the weather conditions in past years. The results will help you decide how hot, cold, wet, or windy it might be!

Date:

Astronomy

Jan. 06, 2014 Rise Set
Actual Time 8:09 AM EST 5:33 PM EST
Civil Twilight 7:39 AM EST 6:04 PM EST
Nautical Twilight 7:04 AM EST 6:38 PM EST
Astronomical Twilight 6:31 AM EST 7:11 PM EST
Moon 11:22 AM EST (1/6) No Moon Set
Length of Visible Light 10h 25m
Length of Day
9h 23m
Waxing Crescent, 34% of the Moon is Illuminated
Jan 6
Waxing Crescent
Jan 7
First Quarter
Jan 15
Full
Jan 24
Last Quarter
Jan 30
New

Hourly Weather History & Observations

Time (EST) Temp. Windchill Dew Point Humidity Pressure Visibility Wind Dir Wind Speed Gust Speed Precip Events Conditions
12:15 AM 5.0 °F -10.8 °F -0.4 °F 78% 29.92 in 5.0 mi WNW 11.5 mph 20.7 mph N/A   Haze
12:35 AM 5.0 °F -12.3 °F -0.4 °F 78% 29.92 in 7.0 mi WNW 13.8 mph 20.7 mph N/A   Mostly Cloudy
12:55 AM 3.2 °F -13.1 °F -4.0 °F 72% 29.94 in 7.0 mi WNW 11.5 mph 21.9 mph N/A   Mostly Cloudy
1:15 AM 1.4 °F -16.9 °F -5.8 °F 72% 29.95 in 7.0 mi West 13.8 mph 20.7 mph N/A   Scattered Clouds
4:15 AM -4.0 °F -25.8 °F -11.2 °F 71% 30.07 in 5.0 mi West 17.3 mph 23.0 mph N/A   Haze
4:35 AM -5.8 °F -28.8 °F -13.0 °F 71% 30.09 in 4.0 mi West 18.4 mph 25.3 mph N/A   Haze
4:55 AM -5.8 °F -26.0 °F -13.0 °F 71% 30.09 in 3.0 mi West 13.8 mph 26.5 mph N/A   Haze
5:15 AM -7.6 °F -26.6 °F -14.8 °F 71% 30.09 in 5.0 mi WNW 11.5 mph 20.7 mph N/A   Haze
5:35 AM -7.6 °F -31.1 °F -14.8 °F 71% 30.10 in 3.0 mi West 18.4 mph 24.2 mph N/A   Haze
5:55 AM -7.6 °F -28.3 °F -16.6 °F 65% 30.11 in 7.0 mi West 13.8 mph 24.2 mph N/A   Mostly Cloudy
6:15 AM -9.4 °F -29.8 °F -16.6 °F 71% 30.12 in 4.0 mi West 12.7 mph 18.4 mph N/A   Haze
6:35 AM -9.4 °F -31.4 °F -16.6 °F 71% 30.13 in 5.0 mi West 15.0 mph 19.6 mph N/A   Haze
6:55 AM -11.2 °F -33.7 °F -18.4 °F 70% 30.15 in 4.0 mi West 15.0 mph 21.9 mph N/A   Haze
7:15 AM -13.0 °F -36.8 °F -18.4 °F 77% 30.16 in 5.0 mi West 16.1 mph 19.6 mph N/A   Haze
7:35 AM -13.0 °F -36.8 °F -18.4 °F 77% 30.16 in 4.0 mi West 16.1 mph 21.9 mph N/A   Haze
7:55 AM -13.0 °F -38.8 °F -20.2 °F 70% 30.17 in 3.0 mi West 19.6 mph 24.2 mph N/A   Haze
8:15 AM -14.8 °F -39.1 °F -22.0 °F 70% 30.18 in 2.5 mi West 16.1 mph 21.9 mph N/A   Haze
8:35 AM -14.8 °F -39.1 °F -22.0 °F 70% 30.19 in 4.0 mi West 16.1 mph - N/A   Haze
8:55 AM -14.8 °F -39.1 °F -22.0 °F 70% 30.20 in 3.0 mi West 16.1 mph 21.9 mph N/A   Haze
9:15 AM -14.8 °F -39.8 °F -22.0 °F 70% 30.21 in 2.5 mi West 17.3 mph 24.2 mph N/A   Haze
9:35 AM -14.8 °F -39.8 °F -22.0 °F 70% 30.21 in 3.0 mi West 17.3 mph 20.7 mph N/A   Haze
9:55 AM -13.0 °F -37.5 °F -22.0 °F 64% 30.22 in 2.5 mi West 17.3 mph 25.3 mph N/A   Haze
10:15 AM -13.0 °F -39.4 °F -22.0 °F 64% 30.23 in 2.5 mi West 20.7 mph 25.3 mph N/A   Haze
10:35 AM -13.0 °F -35.2 °F -22.0 °F 64% 30.23 in 2.0 mi West 13.8 mph 28.8 mph N/A   Haze
10:55 AM -13.0 °F -39.4 °F -20.2 °F 70% 30.23 in 1.8 mi West 20.7 mph 27.6 mph N/A   Haze
11:15 AM -13.0 °F -36.8 °F -22.0 °F 64% 30.23 in 1.5 mi West 16.1 mph 25.3 mph N/A   Haze
11:35 AM -13.0 °F -36.8 °F -20.2 °F 70% 30.23 in 2.0 mi West 16.1 mph 25.3 mph N/A   Haze
11:55 AM -13.0 °F -42.1 °F -20.2 °F 70% 30.22 in 1.0 mi West 26.5 mph - N/A   Haze
12:15 PM -13.0 °F -38.2 °F -20.2 °F 70% 30.22 in 1.5 mi West 18.4 mph 28.8 mph N/A   Haze
12:35 PM -13.0 °F -41.6 °F -20.2 °F 70% 30.21 in 1.5 mi West 25.3 mph 28.8 mph N/A   Haze
12:55 PM -13.0 °F -40.0 °F -20.2 °F 70% 30.21 in 1.2 mi West 21.9 mph 27.6 mph N/A   Haze
1:15 PM -13.0 °F -38.2 °F -20.2 °F 70% 30.21 in 1.5 mi West 18.4 mph 26.5 mph N/A   Haze
1:35 PM -11.2 °F -37.0 °F -18.4 °F 70% 30.21 in 1.0 mi West 20.7 mph 25.3 mph N/A   Haze
1:55 PM -13.0 °F -38.8 °F -18.4 °F 77% 30.21 in 1.0 mi West 19.6 mph 26.5 mph N/A   Haze
2:15 PM -13.0 °F -38.8 °F -18.4 °F 77% 30.22 in 0.8 mi West 19.6 mph 25.3 mph N/A   Haze
2:35 PM -13.0 °F -35.2 °F -18.4 °F 77% 30.23 in 1.0 mi West 13.8 mph - N/A   Haze
2:55 PM -11.2 °F -37.6 °F -20.2 °F 64% 30.23 in 0.8 mi West 21.9 mph 33.4 mph N/A   Haze
3:15 PM -11.2 °F -39.2 °F -18.4 °F 70% 30.24 in 1.2 mi West 25.3 mph 29.9 mph N/A   Haze
3:35 PM -11.2 °F -37.0 °F -18.4 °F 70% 30.24 in 1.5 mi West 20.7 mph 29.9 mph N/A   Haze
3:55 PM -11.2 °F -37.6 °F -18.4 °F 70% 30.25 in 1.0 mi West 21.9 mph 28.8 mph N/A   Haze
4:15 PM -11.2 °F -38.7 °F -18.4 °F 70% 30.25 in 1.5 mi West 24.2 mph 29.9 mph N/A   Haze
4:35 PM -11.2 °F -37.0 °F -18.4 °F 70% 30.26 in 1.5 mi West 20.7 mph 27.6 mph N/A   Haze
4:55 PM -11.2 °F -37.6 °F -18.4 °F 70% 30.26 in 1.8 mi West 21.9 mph 27.6 mph N/A   Haze
5:15 PM -11.2 °F -36.4 °F -18.4 °F 70% 30.27 in 1.5 mi West 19.6 mph 27.6 mph N/A   Haze
5:35 PM -11.2 °F -37.0 °F -18.4 °F 70% 30.27 in 4.0 mi West 20.7 mph 26.5 mph N/A   Haze
5:55 PM -11.2 °F -37.6 °F -18.4 °F 70% 30.28 in 4.0 mi WSW 21.9 mph 25.3 mph N/A   Haze
6:15 PM -11.2 °F -36.4 °F -18.4 °F 70% 30.28 in 4.0 mi West 19.6 mph 27.6 mph N/A   Haze
6:35 PM -11.2 °F -35.8 °F -18.4 °F 70% 30.28 in 4.0 mi WSW 18.4 mph 23.0 mph N/A   Haze
6:55 PM -11.2 °F -37.0 °F -18.4 °F 70% 30.28 in 5.0 mi WSW 20.7 mph 24.2 mph N/A   Haze
7:15 PM -11.2 °F -36.4 °F -16.6 °F 77% 30.29 in 4.0 mi WSW 19.6 mph 25.3 mph N/A   Haze
7:35 PM -11.2 °F -36.4 °F -18.4 °F 70% 30.29 in 4.0 mi WSW 19.6 mph - N/A   Haze
7:55 PM -11.2 °F -35.8 °F -18.4 °F 70% 30.30 in 4.0 mi WSW 18.4 mph 25.3 mph N/A   Haze
8:15 PM -11.2 °F -37.0 °F -18.4 °F 70% 30.30 in 7.0 mi WSW 20.7 mph 25.3 mph N/A   Overcast
8:35 PM -11.2 °F -35.8 °F -18.4 °F 70% 30.30 in 10.0 mi WSW 18.4 mph 24.2 mph N/A   Overcast
8:55 PM -13.0 °F -35.2 °F -18.4 °F 77% 30.31 in 10.0 mi WSW 13.8 mph - N/A   Overcast
9:15 PM -13.0 °F -36.0 °F -18.4 °F 77% 30.31 in 7.0 mi WSW 15.0 mph - N/A   Overcast
9:35 PM -13.0 °F -34.3 °F -18.4 °F 77% 30.31 in 10.0 mi WSW 12.7 mph - N/A   Mostly Cloudy
9:55 PM -13.0 °F -35.2 °F -18.4 °F 77% 30.31 in 10.0 mi WSW 13.8 mph - N/A   Scattered Clouds
10:15 PM -13.0 °F -36.0 °F -20.2 °F 70% 30.31 in 10.0 mi WSW 15.0 mph - N/A   Clear
10:35 PM -13.0 °F -35.2 °F -18.4 °F 77% 30.31 in 10.0 mi WSW 13.8 mph 18.4 mph N/A   Mostly Cloudy
10:55 PM -13.0 °F -36.0 °F -18.4 °F 77% 30.30 in 10.0 mi WSW 15.0 mph - N/A   Scattered Clouds
11:15 PM -13.0 °F -35.2 °F -18.4 °F 77% 30.29 in 10.0 mi WSW 13.8 mph - N/A   Clear
11:35 PM -11.2 °F -33.7 °F -18.4 °F 70% 30.29 in 10.0 mi WSW 15.0 mph - N/A   Scattered Clouds
11:55 PM -11.2 °F -34.4 °F -18.4 °F 70% 30.29 in 10.0 mi WSW 16.1 mph - N/A   Scattered Clouds